| time (UTC) | temp C | wind direction | speed KPH | gust KPH | rain 1hr cm | rain 24hr cm | rain mn cm | humidity % | barometer mb |
| 20260508023418 | 4 | 309 | 0.0 | 1.6 | 0.00 | 0.00 | 0.00 | 85 | 1014.5 |
| 20260508022931 | 4 | 309 | 0.0 | 0.0 | 0.00 | 0.00 | 0.00 | 84 | 1014.4 |
| 20260508022443 | 4 | 309 | 0.0 | 0.0 | 0.00 | 0.00 | 0.00 | 84 | 1014.3 |
| 20260508021932 | 5 | 309 | 0.0 | 1.6 | 0.00 | 0.00 | 0.00 | 83 | 1014.3 |
| 20260508021425 | 5 | 309 | 0.0 | 3.2 | 0.00 | 0.00 | 0.00 | 83 | 1014.2 |
| 20260508020934 | 5 | 309 | 0.0 | 3.2 | 0.00 | 0.00 | 0.00 | 82 | 1014.1 |
| 20260508020428 | 5 | 309 | 0.0 | 3.2 | 0.00 | 0.00 | 0.00 | 81 | 1014.1 |
| 20260508015927 | 5 | 309 | 0.0 | 3.2 | 0.00 | 0.00 | 0.00 | 81 | 1014.1 |
| 20260508015418 | 6 | 309 | 0.0 | 6.4 | 0.00 | 0.00 | 0.00 | 80 | 1014.0 |
| 20260508014932 | 6 | 309 | 3.2 | 6.4 | 0.00 | 0.00 | 0.00 | 80 | 1013.9 |
| 20260508014422 | 6 | 303 | 1.6 | 6.4 | 0.00 | 0.00 | 0.00 | 76 | 1013.9 |
| 20260508013931 | 6 | 303 | 3.2 | 6.4 | 0.00 | 0.00 | 0.00 | 75 | 1013.9 |
| 20260508013422 | 7 | 296 | 1.6 | 8.0 | 0.00 | 0.00 | 0.00 | 73 | 1013.8 |
| 20260508012933 | 7 | 336 | 4.8 | 12.9 | 0.00 | 0.00 | 0.00 | 73 | 1013.7 |
| 20260508012444 | 7 | 322 | 6.4 | 14.5 | 0.00 | 0.00 | 0.00 | 71 | 1013.6 |
| 20260508011931 | 7 | 332 | 4.8 | 14.5 | 0.00 | 0.00 | 0.00 | 71 | 1013.6 |
| 20260508011423 | 7 | 315 | 4.8 | 12.9 | 0.00 | 0.00 | 0.00 | 70 | 1013.4 |
| 20260508010934 | 8 | 305 | 3.2 | 17.7 | 0.00 | 0.00 | 0.00 | 70 | 1013.3 |
| 20260508010426 | 8 | 304 | 6.4 | 17.7 | 0.00 | 0.00 | 0.00 | 69 | 1013.3 |
| 20260508005935 | 8 | 292 | 9.7 | 20.9 | 0.00 | 0.00 | 0.00 | 68 | 1013.2 |
| 20260508005426 | 8 | 309 | 8.0 | 20.9 | 0.00 | 0.00 | 0.00 | 66 | 1013.1 |
| 20260508004955 | 8 | 286 | 9.7 | 22.5 | 0.00 | 0.00 | 0.00 | 61 | 1013.1 |
| 20260508004427 | 8 | 292 | 9.7 | 22.5 | 0.00 | 0.00 | 0.00 | 68 | 1013.0 |
| 20260508003918 | 9 | 284 | 8.0 | 16.1 | 0.00 | 0.00 | 0.00 | 62 | 1012.9 |
| 20260508003426 | 9 | 298 | 4.8 | 17.7 | 0.00 | 0.00 | 0.00 | 66 | 1012.9 |
| 20260508002937 | 9 | 325 | 9.7 | 17.7 | 0.00 | 0.00 | 0.00 | 64 | 1012.8 |
| 20260508002428 | 10 | 282 | 8.0 | 17.7 | 0.00 | 0.00 | 0.00 | 66 | 1012.7 |
| 20260508001921 | 10 | 309 | 9.7 | 17.7 | 0.00 | 0.00 | 0.00 | 58 | 1012.7 |
| 20260508001433 | 10 | 308 | 6.4 | 19.3 | 0.00 | 0.00 | 0.00 | 56 | 1012.5 |
| 20260508000924 | 10 | 270 | 8.0 | 19.3 | 0.00 | 0.00 | 0.00 | 60 | 1012.5 |
| 20260508000419 | 10 | 325 | 6.4 | 17.7 | 0.00 | 0.00 | 0.00 | 61 | 1012.3 |
| 20260507235919 | 10 | 360 | 4.8 | 17.7 | 0.00 | 0.00 | 0.00 | 61 | 1012.2 |
| 20260507235429 | 11 | 311 | 4.8 | 16.1 | 0.00 | 0.00 | 0.00 | 57 | 1012.1 |
| 20260507234920 | 11 | 297 | 6.4 | 24.1 | 0.00 | 0.00 | 0.00 | 53 | 1012.1 |
| 20260507234432 | 11 | 319 | 6.4 | 24.1 | 0.00 | 0.00 | 0.00 | 55 | 1012.0 |
| 20260507233923 | 12 | 294 | 6.4 | 16.1 | 0.00 | 0.00 | 0.00 | 50 | 1012.0 |
| 20260507233435 | 12 | 308 | 6.4 | 19.3 | 0.00 | 0.00 | 0.00 | 50 | 1012.0 |
| 20260507232926 | 12 | 257 | 11.3 | 24.1 | 0.00 | 0.00 | 0.00 | 50 | 1012.0 |
| 20260507232418 | 12 | 258 | 14.5 | 25.7 | 0.00 | 0.00 | 0.00 | 43 | 1011.9 |
| 20260507231929 | 12 | 296 | 14.5 | 25.7 | 0.00 | 0.00 | 0.00 | 46 | 1011.9 |
| 20260507231441 | 12 | 260 | 9.7 | 22.5 | 0.00 | 0.00 | 0.00 | 44 | 1011.8 |
| 20260507230925 | 13 | 297 | 14.5 | 22.5 | 0.00 | 0.00 | 0.00 | 43 | 1011.8 |
| 20260507230419 | 13 | 290 | 11.3 | 24.1 | 0.00 | 0.00 | 0.00 | 43 | 1011.7 |
| 20260507225918 | 13 | 293 | 11.3 | 24.1 | 0.00 | 0.00 | 0.00 | 41 | 1011.7 |
| 20260507225429 | 13 | 306 | 12.9 | 24.1 | 0.00 | 0.00 | 0.00 | 41 | 1011.7 |
| 20260507224918 | 13 | 277 | 11.3 | 24.1 | 0.00 | 0.00 | 0.00 | 44 | 1011.6 |
| 20260507224448 | 13 | 298 | 12.9 | 24.1 | 0.00 | 0.00 | 0.00 | 44 | 1011.6 |
| 20260507223920 | 14 | 295 | 9.7 | 22.5 | 0.00 | 0.00 | 0.00 | 40 | 1011.5 |
| 20260507223426 | 14 | 259 | 8.0 | 14.5 | 0.00 | 0.00 | 0.00 | 38 | 1011.4 |
| 20260507222917 | 14 | 303 | 9.7 | 30.6 | 0.00 | 0.00 | 0.00 | 39 | 1011.5 |
| 20260507222429 | 14 | 274 | 14.5 | 30.6 | 0.00 | 0.00 | 0.00 | 41 | 1011.4 |
| 20260507221920 | 15 | 228 | 9.7 | 19.3 | 0.00 | 0.00 | 0.00 | 38 | 1011.4 |
| 20260507221429 | 15 | 306 | 9.7 | 27.4 | 0.00 | 0.00 | 0.00 | 39 | 1011.3 |
| 20260507220918 | 14 | 17 | 9.7 | 27.4 | 0.00 | 0.00 | 0.00 | 43 | 1011.2 |
| 20260507220429 | 14 | 315 | 11.3 | 22.5 | 0.00 | 0.00 | 0.00 | 41 | 1011.2 |
| 20260507215957 | 14 | 350 | 11.3 | 22.5 | 0.00 | 0.00 | 0.00 | 40 | 1011.2 |
| 20260507215424 | 15 | 286 | 6.4 | 22.5 | 0.00 | 0.00 | 0.00 | 41 | 1011.0 |
| 20260507214935 | 15 | 290 | 12.9 | 25.7 | 0.00 | 0.00 | 0.00 | 39 | 1010.9 |
| 20260507214446 | 15 | 304 | 12.9 | 25.7 | 0.00 | 0.00 | 0.00 | 40 | 1010.9 |
| 20260507213956 | 15 | 249 | 9.7 | 24.1 | 0.00 | 0.00 | 0.00 | 37 | 1011.0 |
| 20260507213421 | 15 | 306 | 12.9 | 22.5 | 0.00 | 0.00 | 0.00 | 39 | 1011.0 |
| 20260507212953 | 15 | 324 | 11.3 | 20.9 | 0.00 | 0.00 | 0.00 | 41 | 1010.8 |
| 20260507212424 | 15 | 267 | 11.3 | 25.7 | 0.00 | 0.00 | 0.00 | 39 | 1010.9 |
| 20260507211931 | 15 | 284 | 16.1 | 25.7 | 0.00 | 0.00 | 0.00 | 42 | 1010.8 |
| 20260507211422 | 15 | 290 | 12.9 | 22.5 | 0.00 | 0.00 | 0.00 | 42 | 1010.9 |
| 20260507210932 | 15 | 286 | 8.0 | 19.3 | 0.00 | 0.00 | 0.00 | 38 | 1010.7 |
| 20260507210423 | 15 | 319 | 11.3 | 19.3 | 0.00 | 0.00 | 0.00 | 41 | 1010.8 |
| 20260507205927 | 15 | 296 | 8.0 | 25.7 | 0.00 | 0.00 | 0.00 | 47 | 1010.8 |
| 20260507205417 | 15 | 238 | 6.4 | 27.4 | 0.00 | 0.00 | 0.00 | 36 | 1010.9 |
| 20260507204926 | 15 | 311 | 11.3 | 27.4 | 0.00 | 0.00 | 0.00 | 38 | 1010.8 |
| 20260507204418 | 15 | 296 | 11.3 | 25.7 | 0.00 | 0.00 | 0.00 | 40 | 1010.9 |
| 20260507203926 | 15 | 323 | 9.7 | 25.7 | 0.00 | 0.00 | 0.00 | 45 | 1010.8 |
| 20260507203417 | 15 | 294 | 19.3 | 25.7 | 0.00 | 0.00 | 0.00 | 40 | 1010.8 |
| 20260507202929 | 15 | 274 | 11.3 | 24.1 | 0.00 | 0.00 | 0.00 | 38 | 1010.8 |
| 20260507202439 | 15 | 304 | 14.5 | 24.1 | 0.00 | 0.00 | 0.00 | 39 | 1010.6 |
| 20260507201929 | 15 | 234 | 9.7 | 20.9 | 0.00 | 0.00 | 0.00 | 36 | 1010.8 |
| 20260507201422 | 16 | 258 | 11.3 | 19.3 | 0.00 | 0.00 | 0.00 | 41 | 1010.8 |
| 20260507200933 | 16 | 51 | 11.3 | 19.3 | 0.00 | 0.00 | 0.00 | 39 | 1010.8 |
| 20260507200425 | 15 | 343 | 9.7 | 24.1 | 0.00 | 0.00 | 0.00 | 38 | 1010.8 |
| 20260507195923 | 16 | 250 | 8.0 | 32.2 | 0.00 | 0.00 | 0.00 | 36 | 1010.9 |
| 20260507195435 | 16 | 333 | 16.1 | 32.2 | 0.00 | 0.00 | 0.00 | 44 | 1011.0 |
| 20260507194926 | 16 | 304 | 6.4 | 17.7 | 0.00 | 0.00 | 0.00 | 36 | 1011.0 |
| 20260507194417 | 16 | 253 | 9.7 | 17.7 | 0.00 | 0.00 | 0.00 | 38 | 1011.2 |
| 20260507193927 | 16 | 313 | 8.0 | 19.3 | 0.00 | 0.00 | 0.00 | 42 | 1011.2 |
| 20260507193418 | 16 | 321 | 9.7 | 20.9 | 0.00 | 0.00 | 0.00 | 39 | 1011.3 |
| 20260507192930 | 16 | 273 | 11.3 | 20.9 | 0.00 | 0.00 | 0.00 | 37 | 1011.5 |
| 20260507192443 | 16 | 258 | 8.0 | 25.7 | 0.00 | 0.00 | 0.00 | 39 | 1011.4 |
| 20260507191928 | 16 | 280 | 12.9 | 25.7 | 0.00 | 0.00 | 0.00 | 38 | 1011.4 |
| 20260507191439 | 16 | 306 | 14.5 | 25.7 | 0.00 | 0.00 | 0.00 | 42 | 1011.4 |
| 20260507190930 | 15 | 303 | 6.4 | 25.7 | 0.00 | 0.00 | 0.00 | 44 | 1011.4 |
| 20260507190421 | 15 | 294 | 12.9 | 24.1 | 0.00 | 0.00 | 0.00 | 47 | 1011.3 |
| 20260507185929 | 15 | 222 | 6.4 | 27.4 | 0.00 | 0.00 | 0.00 | 42 | 1011.3 |
| 20260507185419 | 15 | 201 | 16.1 | 27.4 | 0.00 | 0.00 | 0.00 | 40 | 1011.4 |
| 20260507184930 | 15 | 310 | 6.4 | 22.5 | 0.00 | 0.00 | 0.00 | 48 | 1011.4 |
| 20260507184420 | 15 | 285 | 12.9 | 22.5 | 0.00 | 0.00 | 0.00 | 45 | 1011.6 |
| 20260507183933 | 15 | 218 | 11.3 | 19.3 | 0.00 | 0.00 | 0.00 | 50 | 1011.6 |
| 20260507183420 | 15 | 268 | 9.7 | 17.7 | 0.00 | 0.00 | 0.00 | 44 | 1011.6 |
| 20260507182927 | 15 | 175 | 6.4 | 19.3 | 0.00 | 0.00 | 0.00 | 47 | 1011.5 |
| 20260507182418 | 15 | 259 | 12.9 | 19.3 | 0.00 | 0.00 | 0.00 | 50 | 1011.7 |
| 20260507181928 | 15 | 334 | 9.7 | 19.3 | 0.00 | 0.00 | 0.00 | 45 | 1011.7 |
| 20260507181420 | 15 | 264 | 11.3 | 17.7 | 0.00 | 0.00 | 0.00 | 44 | 1011.7 |
| 20260507180932 | 14 | 294 | 6.4 | 14.5 | 0.00 | 0.00 | 0.00 | 50 | 1011.7 |
| 20260507180443 | 13 | 307 | 6.4 | 22.5 | 0.00 | 0.00 | 0.00 | 46 | 1011.8 |
| 20260507175925 | 13 | 182 | 9.7 | 22.5 | 0.00 | 0.00 | 0.00 | 46 | 1011.8 |
| 20260507175433 | 14 | 242 | 8.0 | 20.9 | 0.00 | 0.00 | 0.00 | 47 | 1011.9 |
| 20260507174926 | 15 | 286 | 8.0 | 20.9 | 0.00 | 0.00 | 0.00 | 47 | 1011.8 |
| 20260507174417 | 14 | 173 | 8.0 | 20.9 | 0.00 | 0.00 | 0.00 | 45 | 1011.9 |
| 20260507173929 | 13 | 317 | 6.4 | 16.1 | 0.00 | 0.00 | 0.00 | 49 | 1012.0 |
| 20260507173419 | 13 | 186 | 6.4 | 20.9 | 0.00 | 0.00 | 0.00 | 46 | 1012.1 |
| 20260507172951 | 14 | 329 | 12.9 | 20.9 | 0.00 | 0.00 | 0.00 | 54 | 1012.1 |
| 20260507172421 | 13 | 272 | 8.0 | 16.1 | 0.00 | 0.00 | 0.00 | 48 | 1012.2 |
| 20260507171934 | 13 | 292 | 6.4 | 14.5 | 0.00 | 0.00 | 0.00 | 47 | 1012.2 |
| 20260507171421 | 13 | 22 | 6.4 | 16.1 | 0.00 | 0.00 | 0.00 | 49 | 1012.3 |
| 20260507170934 | 13 | 208 | 6.4 | 16.1 | 0.00 | 0.00 | 0.00 | 48 | 1012.5 |
| 20260507170503 | 13 | 33 | 8.0 | 22.5 | 0.00 | 0.00 | 0.00 | 49 | 1012.5 |
| 20260507165938 | 13 | 312 | 8.0 | 22.5 | 0.00 | 0.00 | 0.00 | 44 | 1012.6 |
| 20260507165428 | 14 | 282 | 8.0 | 20.9 | 0.00 | 0.00 | 0.00 | 50 | 1012.5 |
| 20260507164920 | 13 | 184 | 9.7 | 20.9 | 0.00 | 0.00 | 0.00 | 47 | 1012.5 |
| 20260507164432 | 13 | 184 | 8.0 | 17.7 | 0.00 | 0.00 | 0.00 | 49 | 1012.6 |
| 20260507163918 | 13 | 210 | 9.7 | 14.5 | 0.00 | 0.00 | 0.00 | 48 | 1012.7 |
| 20260507163450 | 13 | 286 | 6.4 | 17.7 | 0.00 | 0.00 | 0.00 | 45 | 1012.7 |
| 20260507162921 | 14 | 107 | 4.8 | 19.3 | 0.00 | 0.00 | 0.00 | 41 | 1012.7 |
| 20260507162430 | 14 | 326 | 12.9 | 19.3 | 0.00 | 0.00 | 0.00 | 54 | 1012.7 |
| 20260507161942 | 13 | 160 | 3.2 | 19.3 | 0.00 | 0.00 | 0.00 | 45 | 1012.8 |
| 20260507161433 | 13 | 293 | 6.4 | 19.3 | 0.00 | 0.00 | 0.00 | 45 | 1012.8 |
| 20260507160925 | 14 | 360 | 11.3 | 27.4 | 0.00 | 0.00 | 0.00 | 47 | 1012.9 |
| 20260507160417 | 14 | 313 | 16.1 | 27.4 | 0.00 | 0.00 | 0.00 | 52 | 1012.9 |
| 20260507155935 | 13 | 22 | 8.0 | 16.1 | 0.00 | 0.00 | 0.00 | 52 | 1012.9 |
| 20260507155420 | 13 | 240 | 8.0 | 16.1 | 0.00 | 0.00 | 0.00 | 44 | 1013.0 |
| 20260507154932 | 14 | 293 | 8.0 | 16.1 | 0.00 | 0.00 | 0.00 | 45 | 1013.0 |
| 20260507154422 | 14 | 313 | 9.7 | 16.1 | 0.00 | 0.00 | 0.00 | 45 | 1013.0 |
| 20260507153953 | 14 | 178 | 6.4 | 12.9 | 0.00 | 0.00 | 0.00 | 50 | 1013.1 |
| 20260507153425 | 13 | 160 | 6.4 | 14.5 | 0.00 | 0.00 | 0.00 | 49 | 1013.1 |
| 20260507152916 | 13 | 213 | 6.4 | 14.5 | 0.00 | 0.00 | 0.00 | 50 | 1013.2 |
| 20260507152422 | 13 | 311 | 6.4 | 12.9 | 0.00 | 0.00 | 0.00 | 47 | 1013.2 |
| 20260507151933 | 13 | 224 | 4.8 | 19.3 | 0.00 | 0.00 | 0.00 | 45 | 1013.2 |
| 20260507151425 | 13 | 225 | 12.9 | 19.3 | 0.00 | 0.00 | 0.00 | 46 | 1013.3 |
| 20260507150935 | 13 | 334 | 3.2 | 8.0 | 0.00 | 0.00 | 0.00 | 50 | 1013.2 |
| 20260507150426 | 12 | 313 | 4.8 | 12.9 | 0.00 | 0.00 | 0.00 | 46 | 1013.3 |
| 20260507145933 | 13 | 347 | 4.8 | 16.1 | 0.00 | 0.10 | 0.00 | 45 | 1013.4 |
| 20260507145423 | 13 | 297 | 6.4 | 16.1 | 0.00 | 0.10 | 0.00 | 52 | 1013.4 |
| 20260507144935 | 12 | 346 | 3.2 | 16.1 | 0.00 | 0.10 | 0.00 | 49 | 1013.5 |
| 20260507144425 | 12 | 319 | 3.2 | 16.1 | 0.00 | 0.10 | 0.00 | 48 | 1013.7 |
| 20260507143932 | 12 | 284 | 9.7 | 16.1 | 0.00 | 0.10 | 0.00 | 48 | 1013.7 |
| 20260507143443 | 12 | 327 | 4.8 | 14.5 | 0.00 | 0.10 | 0.00 | 52 | 1013.6 |
| 20260507142935 | 12 | 237 | 6.4 | 14.5 | 0.00 | 0.10 | 0.00 | 52 | 1013.7 |
| 20260507142427 | 12 | 256 | 3.2 | 17.7 | 0.00 | 0.10 | 0.00 | 48 | 1013.9 |
| 20260507141956 | 12 | 205 | 9.7 | 17.7 | 0.00 | 0.10 | 0.00 | 52 | 1014.0 |
| 20260507141427 | 12 | 263 | 8.0 | 14.5 | 0.00 | 0.10 | 0.00 | 52 | 1014.1 |
| 20260507140918 | 12 | 289 | 3.2 | 9.7 | 0.00 | 0.10 | 0.00 | 55 | 1014.1 |
| 20260507140429 | 11 | 112 | 3.2 | 9.7 | 0.00 | 0.10 | 0.00 | 55 | 1014.2 |
| 20260507135950 | 11 | 169 | 4.8 | 12.9 | 0.00 | 0.10 | 0.00 | 55 | 1014.3 |
| 20260507135419 | 11 | 294 | 4.8 | 12.9 | 0.00 | 0.10 | 0.00 | 66 | 1014.3 |
| 20260507134930 | 11 | 194 | 6.4 | 16.1 | 0.00 | 0.10 | 0.00 | 56 | 1014.4 |
| 20260507134420 | 11 | 166 | 4.8 | 16.1 | 0.00 | 0.10 | 0.00 | 60 | 1014.4 |
| 20260507133950 | 11 | 276 | 3.2 | 12.9 | 0.00 | 0.10 | 0.00 | 56 | 1014.5 |
| 20260507133420 | 11 | 186 | 8.0 | 14.5 | 0.00 | 0.10 | 0.00 | 57 | 1014.5 |
| 20260507132929 | 11 | 228 | 4.8 | 8.0 | 0.00 | 0.10 | 0.00 | 58 | 1014.7 |
| 20260507132436 | 11 | 244 | 4.8 | 11.3 | 0.00 | 0.10 | 0.00 | 62 | 1014.7 |
| 20260507131927 | 11 | 184 | 4.8 | 11.3 | 0.00 | 0.10 | 0.00 | 64 | 1014.7 |
| 20260507131419 | 11 | 168 | 3.2 | 12.9 | 0.00 | 0.10 | 0.00 | 63 | 1014.6 |
| 20260507130951 | 11 | 145 | 4.8 | 12.9 | 0.00 | 0.10 | 0.00 | 65 | 1014.6 |
| 20260507130420 | 10 | 142 | 4.8 | 9.7 | 0.00 | 0.10 | 0.00 | 63 | 1014.6 |
| 20260507125942 | 10 | 180 | 3.2 | 11.3 | 0.00 | 0.15 | 0.00 | 66 | 1014.6 |
| 20260507125435 | 10 | 202 | 4.8 | 11.3 | 0.00 | 0.15 | 0.00 | 63 | 1014.5 |
| 20260507124939 | 10 | 200 | 8.0 | 11.3 | 0.00 | 0.15 | 0.00 | 63 | 1014.5 |
| 20260507124429 | 9 | 155 | 4.8 | 8.0 | 0.00 | 0.15 | 0.00 | 71 | 1014.5 |
| 20260507123921 | 8 | 207 | 3.2 | 9.7 | 0.00 | 0.15 | 0.00 | 82 | 1014.5 |
| 20260507123451 | 8 | 205 | 6.4 | 9.7 | 0.00 | 0.15 | 0.00 | 86 | 1014.6 |
| 20260507122920 | 7 | 318 | 0.0 | 4.8 | 0.00 | 0.15 | 0.00 | 93 | 1014.6 |
| 20260507122451 | 7 | 331 | 0.0 | 0.0 | 0.00 | 0.15 | 0.00 | 96 | 1014.6 |
| 20260507121922 | 7 | 331 | 0.0 | 0.0 | 0.00 | 0.15 | 0.00 | 96 | 1014.6 |
| 20260507121449 | 6 | 331 | 0.0 | 0.0 | 0.00 | 0.15 | 0.00 | 96 | 1014.6 |
| 20260507120917 | 6 | 331 | 0.0 | 0.0 | 0.00 | 0.15 | 0.00 | 96 | 1014.7 |
| 20260507120428 | 5 | 331 | 0.0 | 0.0 | 0.00 | 0.15 | 0.00 | 96 | 1014.6 |
| 20260507115954 | 5 | 331 | 0.0 | 0.0 | 0.00 | 0.15 | 0.00 | 96 | 1014.7 |
| 20260507115423 | 3 | 331 | 0.0 | 0.0 | 0.00 | 0.15 | 0.00 | 95 | 1014.6 |
| 20260507114934 | 3 | 332 | 0.0 | 0.0 | 0.00 | 0.15 | 0.00 | 94 | 1014.7 |
| 20260507114424 | 2 | 331 | 0.0 | 0.0 | 0.00 | 0.15 | 0.00 | 94 | 1014.7 |
| 20260507113931 | 2 | 331 | 0.0 | 0.0 | 0.00 | 0.15 | 0.00 | 93 | 1014.7 |
| 20260507113422 | 1 | 331 | 0.0 | 0.0 | 0.00 | 0.15 | 0.00 | 92 | 1014.6 |
| 20260507112932 | 1 | 331 | 0.0 | 0.0 | 0.00 | 0.15 | 0.00 | 92 | 1014.6 |
| 20260507112424 | 1 | 331 | 0.0 | 0.0 | 0.00 | 0.15 | 0.00 | 92 | 1014.5 |
| 20260507111937 | 1 | 331 | 0.0 | 0.0 | 0.00 | 0.15 | 0.00 | 92 | 1014.5 |
| 20260507111427 | 1 | 331 | 0.0 | 0.0 | 0.00 | 0.15 | 0.00 | 91 | 1014.5 |
| 20260507110937 | 1 | 331 | 0.0 | 0.0 | 0.00 | 0.15 | 0.00 | 91 | 1014.3 |
| 20260507110444 | 1 | 331 | 0.0 | 0.0 | 0.00 | 0.15 | 0.00 | 91 | 1014.3 |
| 20260507105927 | 1 | 331 | 0.0 | 0.0 | 0.00 | 0.38 | 0.00 | 91 | 1014.2 |
| 20260507105418 | 1 | 331 | 0.0 | 0.0 | 0.00 | 0.38 | 0.00 | 91 | 1014.1 |
| 20260507104949 | 1 | 331 | 0.0 | 0.0 | 0.00 | 0.38 | 0.00 | 90 | 1014.1 |
| 20260507104439 | 1 | 331 | 0.0 | 0.0 | 0.00 | 0.38 | 0.00 | 90 | 1014.0 |
| 20260507103931 | 1 | 331 | 0.0 | 0.0 | 0.00 | 0.38 | 0.00 | 90 | 1014.0 |
| 20260507103443 | 2 | 331 | 0.0 | 0.0 | 0.00 | 0.38 | 0.00 | 90 | 1014.0 |
| 20260507102927 | 2 | 331 | 0.0 | 0.0 | 0.00 | 0.38 | 0.00 | 90 | 1014.0 |
| 20260507102419 | 2 | 331 | 0.0 | 0.0 | 0.00 | 0.38 | 0.00 | 90 | 1014.0 |
| 20260507101930 | 2 | 331 | 0.0 | 0.0 | 0.00 | 0.38 | 0.00 | 90 | 1014.0 |
| 20260507101420 | 2 | 331 | 0.0 | 0.0 | 0.00 | 0.38 | 0.00 | 90 | 1014.0 |
| 20260507100931 | 2 | 331 | 0.0 | 0.0 | 0.00 | 0.38 | 0.00 | 89 | 1014.0 |
| 20260507100421 | 2 | 331 | 0.0 | 0.0 | 0.00 | 0.38 | 0.00 | 89 | 1013.9 |
| 20260507095942 | 2 | 331 | 0.0 | 0.0 | 0.00 | 0.66 | 0.00 | 89 | 1013.8 |
| 20260507095433 | 2 | 331 | 0.0 | 0.0 | 0.00 | 0.66 | 0.00 | 89 | 1013.8 |
| 20260507094921 | 2 | 331 | 0.0 | 0.0 | 0.00 | 0.66 | 0.00 | 89 | 1013.8 |
| 20260507094431 | 2 | 331 | 0.0 | 0.0 | 0.00 | 0.66 | 0.00 | 89 | 1013.8 |
| 20260507093923 | 2 | 331 | 0.0 | 0.0 | 0.00 | 0.66 | 0.00 | 89 | 1013.8 |
| 20260507093434 | 3 | 331 | 0.0 | 0.0 | 0.00 | 0.66 | 0.00 | 89 | 1013.8 |
| 20260507092924 | 3 | 331 | 0.0 | 0.0 | 0.00 | 0.66 | 0.00 | 89 | 1013.9 |
| 20260507092435 | 3 | 331 | 0.0 | 0.0 | 0.00 | 0.66 | 0.00 | 89 | 1013.8 |
| 20260507091926 | 3 | 331 | 0.0 | 0.0 | 0.00 | 0.66 | 0.00 | 89 | 1013.8 |
| 20260507091420 | 3 | 331 | 0.0 | 0.0 | 0.00 | 0.66 | 0.00 | 88 | 1013.8 |
| 20260507090930 | 3 | 331 | 0.0 | 0.0 | 0.00 | 0.66 | 0.00 | 88 | 1013.8 |
| 20260507090416 | 3 | 331 | 0.0 | 0.0 | 0.00 | 0.66 | 0.00 | 88 | 1013.9 |
| 20260507085938 | 3 | 331 | 0.0 | 0.0 | 0.00 | 0.86 | 0.00 | 88 | 1013.9 |
| 20260507085427 | 3 | 331 | 0.0 | 0.0 | 0.00 | 0.86 | 0.00 | 88 | 1014.0 |
| 20260507084918 | 3 | 331 | 0.0 | 0.0 | 0.00 | 0.86 | 0.00 | 88 | 1014.1 |
| 20260507084428 | 4 | 331 | 0.0 | 0.0 | 0.00 | 0.86 | 0.00 | 88 | 1014.0 |
| 20260507083920 | 4 | 331 | 0.0 | 0.0 | 0.00 | 0.86 | 0.00 | 88 | 1014.1 |
| 20260507083432 | 4 | 331 | 0.0 | 0.0 | 0.00 | 0.86 | 0.00 | 88 | 1014.1 |
| 20260507082924 | 5 | 331 | 0.0 | 0.0 | 0.00 | 0.86 | 0.00 | 87 | 1014.1 |
| 20260507082429 | 5 | 331 | 0.0 | 0.0 | 0.00 | 0.86 | 0.00 | 87 | 1014.0 |
| 20260507081920 | 5 | 331 | 0.0 | 0.0 | 0.00 | 0.86 | 0.00 | 87 | 1014.0 |
| 20260507081431 | 5 | 331 | 0.0 | 0.0 | 0.00 | 0.86 | 0.00 | 87 | 1013.9 |
| 20260507080921 | 5 | 331 | 0.0 | 0.0 | 0.00 | 0.86 | 0.00 | 86 | 1014.0 |
| 20260507080451 | 6 | 331 | 0.0 | 0.0 | 0.00 | 0.86 | 0.00 | 86 | 1014.0 |
| 20260507075957 | 6 | 331 | 0.0 | 0.0 | 0.00 | 0.91 | 0.00 | 86 | 1013.9 |
| 20260507075502 | 6 | 331 | 0.0 | 0.0 | 0.00 | 0.91 | 0.00 | 86 | 1013.9 |
| 20260507074933 | 6 | 331 | 0.0 | 0.0 | 0.00 | 0.91 | 0.00 | 87 | 1013.8 |
| 20260507074424 | 6 | 331 | 0.0 | 1.6 | 0.00 | 0.91 | 0.00 | 87 | 1013.8 |
| 20260507073933 | 6 | 331 | 0.0 | 1.6 | 0.00 | 0.91 | 0.00 | 87 | 1013.8 |
| 20260507073442 | 7 | 331 | 1.6 | 1.6 | 0.00 | 0.91 | 0.00 | 87 | 1013.9 |
| 20260507072932 | 7 | 331 | 0.0 | 3.2 | 0.00 | 0.91 | 0.00 | 86 | 1013.8 |
| 20260507072445 | 7 | 331 | 1.6 | 3.2 | 0.00 | 0.91 | 0.00 | 86 | 1013.8 |
| 20260507071931 | 7 | 331 | 0.0 | 3.2 | 0.00 | 0.91 | 0.00 | 86 | 1013.8 |
| 20260507071423 | 7 | 331 | 1.6 | 3.2 | 0.00 | 0.91 | 0.00 | 87 | 1013.9 |
| 20260507070935 | 7 | 331 | 1.6 | 1.6 | 0.00 | 0.91 | 0.00 | 87 | 1013.8 |
| 20260507070444 | 7 | 331 | 0.0 | 1.6 | 0.00 | 0.91 | 0.00 | 87 | 1013.8 |
| 20260507065925 | 7 | 331 | 1.6 | 1.6 | 0.00 | 0.91 | 0.00 | 87 | 1013.8 |
| 20260507065418 | 7 | 332 | 0.0 | 1.6 | 0.00 | 0.91 | 0.00 | 88 | 1013.8 |
| 20260507064931 | 7 | 332 | 0.0 | 3.2 | 0.00 | 0.91 | 0.00 | 87 | 1013.7 |
| 20260507064423 | 7 | 332 | 0.0 | 3.2 | 0.00 | 0.91 | 0.00 | 87 | 1013.7 |
| 20260507063930 | 7 | 332 | 0.0 | 3.2 | 0.00 | 0.91 | 0.00 | 87 | 1013.7 |
| 20260507063423 | 7 | 332 | 0.0 | 1.6 | 0.00 | 0.91 | 0.00 | 87 | 1013.8 |
| 20260507062933 | 8 | 331 | 0.0 | 3.2 | 0.00 | 0.91 | 0.00 | 87 | 1013.9 |
| 20260507062424 | 8 | 331 | 1.6 | 3.2 | 0.00 | 0.91 | 0.00 | 87 | 1013.9 |
| 20260507061955 | 8 | 331 | 1.6 | 4.8 | 0.00 | 0.91 | 0.00 | 87 | 1013.8 |
| 20260507061424 | 8 | 331 | 3.2 | 4.8 | 0.00 | 0.91 | 0.00 | 88 | 1013.9 |
| 20260507060936 | 8 | 336 | 1.6 | 4.8 | 0.00 | 0.91 | 0.00 | 88 | 1013.9 |
| 20260507060426 | 8 | 336 | 1.6 | 8.0 | 0.00 | 0.91 | 0.00 | 87 | 1013.9 |
| 20260507055924 | 8 | 336 | 3.2 | 8.0 | 0.00 | 0.91 | 0.00 | 87 | 1013.8 |
| 20260507055434 | 8 | 322 | 1.6 | 6.4 | 0.00 | 0.91 | 0.00 | 87 | 1013.9 |
| 20260507054925 | 8 | 322 | 3.2 | 6.4 | 0.00 | 0.91 | 0.00 | 87 | 1014.0 |
| 20260507054435 | 8 | 315 | 1.6 | 4.8 | 0.00 | 0.91 | 0.00 | 87 | 1014.0 |
| 20260507053926 | 8 | 315 | 1.6 | 4.8 | 0.00 | 0.91 | 0.00 | 87 | 1014.1 |
| 20260507053417 | 8 | 313 | 1.6 | 3.2 | 0.00 | 0.91 | 0.00 | 87 | 1014.1 |
| 20260507052928 | 8 | 312 | 0.0 | 1.6 | 0.00 | 0.91 | 0.00 | 87 | 1014.2 |
| 20260507052420 | 8 | 313 | 0.0 | 1.6 | 0.00 | 0.91 | 0.00 | 88 | 1014.2 |
| 20260507051947 | 8 | 313 | 0.0 | 1.6 | 0.00 | 0.91 | 0.00 | 88 | 1014.2 |
| 20260507051417 | 8 | 312 | 0.0 | 1.6 | 0.00 | 0.91 | 0.00 | 88 | 1014.3 |
| 20260507050927 | 8 | 313 | 0.0 | 1.6 | 0.00 | 0.91 | 0.00 | 87 | 1014.3 |
| 20260507050417 | 8 | 313 | 0.0 | 0.0 | 0.00 | 0.91 | 0.00 | 87 | 1014.3 |
| 20260507045918 | 8 | 313 | 0.0 | 1.6 | 0.00 | 0.91 | 0.91 | 87 | 1014.3 |
| 20260507045429 | 8 | 313 | 0.0 | 1.6 | 0.00 | 0.91 | 0.91 | 87 | 1014.4 |
| 20260507044921 | 8 | 313 | 1.6 | 1.6 | 0.00 | 0.91 | 0.91 | 87 | 1014.4 |
| 20260507044434 | 8 | 313 | 0.0 | 0.0 | 0.00 | 0.91 | 0.91 | 87 | 1014.4 |
| 20260507043942 | 8 | 312 | 0.0 | 0.0 | 0.00 | 0.91 | 0.91 | 88 | 1014.3 |
| 20260507043432 | 8 | 312 | 0.0 | 0.0 | 0.00 | 0.91 | 0.91 | 88 | 1014.2 |
| 20260507042924 | 8 | 312 | 0.0 | 1.6 | 0.00 | 0.91 | 0.91 | 88 | 1014.2 |
| 20260507042433 | 9 | 312 | 0.0 | 1.6 | 0.00 | 0.91 | 0.91 | 88 | 1014.2 |
| 20260507041943 | 9 | 312 | 0.0 | 1.6 | 0.00 | 0.91 | 0.91 | 88 | 1014.1 |
| 20260507041434 | 9 | 312 | 0.0 | 1.6 | 0.00 | 0.91 | 0.91 | 87 | 1014.2 |
| 20260507040924 | 9 | 313 | 0.0 | 0.0 | 0.00 | 0.91 | 0.91 | 87 | 1014.1 |
| 20260507040417 | 9 | 312 | 0.0 | 1.6 | 0.00 | 0.91 | 0.91 | 87 | 1014.1 |
| 20260507035916 | 9 | 312 | 0.0 | 1.6 | 0.00 | 0.94 | 0.91 | 87 | 1014.0 |
| 20260507035435 | 9 | 312 | 0.0 | 1.6 | 0.00 | 0.94 | 0.91 | 87 | 1014.1 |
| 20260507034925 | 9 | 313 | 0.0 | 1.6 | 0.00 | 0.94 | 0.91 | 87 | 1014.1 |
| 20260507034418 | 9 | 312 | 0.0 | 1.6 | 0.00 | 0.94 | 0.91 | 88 | 1014.2 |
| 20260507033948 | 9 | 312 | 0.0 | 1.6 | 0.00 | 0.94 | 0.91 | 88 | 1014.1 |
| 20260507033420 | 9 | 312 | 0.0 | 1.6 | 0.00 | 0.94 | 0.91 | 88 | 1014.1 |
| 20260507032951 | 9 | 313 | 1.6 | 1.6 | 0.00 | 0.94 | 0.91 | 88 | 1014.2 |
| 20260507032423 | 9 | 312 | 1.6 | 1.6 | 0.00 | 0.94 | 0.91 | 89 | 1014.2 |
| 20260507031950 | 10 | 312 | 0.0 | 0.0 | 0.00 | 0.94 | 0.91 | 90 | 1014.0 |
| 20260507031419 | 10 | 312 | 0.0 | 1.6 | 0.00 | 0.94 | 0.91 | 90 | 1014.0 |
| 20260507030952 | 10 | 312 | 0.0 | 1.6 | 0.00 | 0.94 | 0.91 | 90 | 1014.2 |
| 20260507030423 | 10 | 312 | 0.0 | 1.6 | 0.00 | 0.94 | 0.91 | 90 | 1014.1 |
| 20260507025925 | 10 | 312 | 0.0 | 1.6 | 0.00 | 0.94 | 0.91 | 90 | 1013.9 |
| 20260507025418 | 10 | 312 | 0.0 | 3.2 | 0.00 | 0.94 | 0.91 | 90 | 1013.9 |
| 20260507024929 | 10 | 312 | 0.0 | 3.2 | 0.00 | 0.94 | 0.91 | 90 | 1013.9 |
| 20260507024435 | 10 | 312 | 1.6 | 6.4 | 0.00 | 0.94 | 0.91 | 90 | 1013.9 |
| 20260507023945 | 10 | 312 | 3.2 | 6.4 | 0.00 | 0.94 | 0.91 | 91 | 1013.7 |